Location: Bessat
(45.8735°N, 1.9924°E)
Time: 22:39:02
(UTC+00:00)

Cosmos 2084 - Pass Details

Date: 11 May 2021
Orbit: 541 x 640 km, 62.8° (Epoch: 23 June)

Event Time Altitude Azimuth Distance (km) Brightness Sun altitude
Rises 19:59:47 0° 197° (SSW) 2,697 6.6 -7.8°
Reaches altitude 10° 20:02:03 10° 189° (S) 1,817 5.7 -8.1°
Maximum altitude 20:05:51 38° 121° (ESE) 861 3.8 -8.7°
Drops below altitude 10° 20:09:45 10° 53° (NE) 1,873 5.9 -9.2°
Sets 20:12:07 0° 46° (NE) 2,793 6.8 -9.5°
